| time (UTC) | temp F | wind direction | speed MPH | gust MPH | rain 1hr in | rain 24hr in | rain mn in | humidity % | barometer mb |
| 20260506200905 | 62 | 61 | 18.0 | 25.0 | 0.00 | 0.00 | 0.00 | 66 | 1019.2 |
| 20260506200401 | 62 | 74 | 10.0 | 18.0 | 0.00 | 0.00 | 0.00 | 64 | 1019.2 |
| 20260506195858 | 62 | 82 | 8.0 | 11.0 | 0.00 | 0.00 | 0.00 | 63 | 1019.2 |
| 20260506195355 | 61 | 86 | 8.0 | 15.0 | 0.00 | 0.00 | 0.00 | 65 | 1019.4 |
| 20260506194851 | 61 | 105 | 10.0 | 13.0 | 0.00 | 0.00 | 0.00 | 64 | 1019.4 |
| 20260506194348 | 62 | 83 | 10.0 | 16.0 | 0.00 | 0.00 | 0.00 | 65 | 1019.4 |
| 20260506193846 | 60 | 73 | 10.0 | 15.0 | 0.00 | 0.00 | 0.00 | 68 | 1019.4 |
| 20260506193343 | 61 | 108 | 12.0 | 18.0 | 0.00 | 0.00 | 0.00 | 65 | 1019.5 |
| 20260506192839 | 60 | 93 | 11.0 | 29.0 | 0.00 | 0.00 | 0.00 | 67 | 1019.7 |
| 20260506192336 | 62 | 116 | 9.0 | 23.0 | 0.00 | 0.00 | 0.00 | 64 | 1019.5 |
| 20260506191833 | 61 | 81 | 16.0 | 26.0 | 0.00 | 0.00 | 0.00 | 65 | 1019.7 |
| 20260506191329 | 60 | 63 | 10.0 | 35.0 | 0.00 | 0.00 | 0.00 | 69 | 1019.7 |
| 20260506190826 | 60 | 81 | 24.0 | 27.0 | 0.00 | 0.00 | 0.00 | 66 | 1019.6 |
| 20260506190322 | 60 | 62 | 14.0 | 25.0 | 0.00 | 0.00 | 0.00 | 66 | 1019.7 |
| 20260506185820 | 60 | 73 | 13.0 | 17.0 | 0.00 | 0.00 | 0.00 | 67 | 1019.7 |
| 20260506185316 | 58 | 78 | 8.0 | 23.0 | 0.00 | 0.00 | 0.00 | 70 | 1019.7 |
| 20260506184814 | 58 | 64 | 11.0 | 18.0 | 0.00 | 0.00 | 0.00 | 69 | 1019.9 |
| 20260506184311 | 58 | 84 | 12.0 | 17.0 | 0.00 | 0.00 | 0.00 | 69 | 1020.1 |
| 20260506183808 | 58 | 54 | 11.0 | 18.0 | 0.00 | 0.00 | 0.00 | 69 | 1019.7 |
| 20260506183303 | 57 | 91 | 11.0 | 15.0 | 0.00 | 0.00 | 0.00 | 71 | 1020.1 |
| 20260506182800 | 57 | 82 | 9.0 | 14.0 | 0.00 | 0.00 | 0.00 | 70 | 1019.9 |
| 20260506182257 | 57 | 69 | 9.0 | 16.0 | 0.00 | 0.00 | 0.00 | 71 | 1020.0 |
| 20260506181755 | 57 | 100 | 10.0 | 15.0 | 0.00 | 0.00 | 0.00 | 71 | 1020.0 |
| 20260506181253 | 57 | 57 | 11.0 | 18.0 | 0.00 | 0.00 | 0.00 | 70 | 1019.9 |
| 20260506180750 | 56 | 49 | 10.0 | 16.0 | 0.00 | 0.00 | 0.00 | 71 | 1020.0 |
| 20260506180245 | 56 | 110 | 12.0 | 16.0 | 0.00 | 0.00 | 0.00 | 71 | 1020.1 |
| 20260506175742 | 56 | 63 | 5.0 | 13.0 | 0.00 | 0.00 | 0.00 | 71 | 1020.0 |
| 20260506175239 | 56 | 58 | 9.0 | 20.0 | 0.00 | 0.00 | 0.00 | 69 | 1020.1 |
| 20260506174737 | 56 | 119 | 9.0 | 11.0 | 0.00 | 0.00 | 0.00 | 70 | 1020.3 |
| 20260506174233 | 55 | 49 | 7.0 | 18.0 | 0.00 | 0.00 | 0.00 | 71 | 1020.2 |
| 20260506173732 | 56 | 53 | 7.0 | 13.0 | 0.00 | 0.00 | 0.00 | 70 | 1020.1 |
| 20260506173228 | 55 | 88 | 13.0 | 15.0 | 0.00 | 0.00 | 0.00 | 70 | 1020.0 |
| 20260506172725 | 56 | 73 | 7.0 | 11.0 | 0.00 | 0.00 | 0.00 | 69 | 1020.2 |
| 20260506172221 | 55 | 109 | 7.0 | 10.0 | 0.00 | 0.00 | 0.00 | 71 | 1020.0 |
| 20260506171719 | 53 | 136 | 7.0 | 13.0 | 0.00 | 0.00 | 0.00 | 73 | 1019.9 |
| 20260506171216 | 55 | 94 | 7.0 | 13.0 | 0.00 | 0.00 | 0.00 | 71 | 1020.1 |
| 20260506170713 | 53 | 85 | 9.0 | 11.0 | 0.00 | 0.00 | 0.00 | 73 | 1020.1 |
| 20260506170210 | 54 | 103 | 5.0 | 10.0 | 0.00 | 0.00 | 0.00 | 73 | 1020.1 |
| 20260506165709 | 54 | 109 | 6.0 | 17.0 | 0.00 | 0.00 | 0.00 | 72 | 1020.3 |
| 20260506165205 | 54 | 75 | 10.0 | 15.0 | 0.00 | 0.00 | 0.00 | 73 | 1020.3 |
| 20260506164702 | 53 | 95 | 4.0 | 7.0 | 0.00 | 0.00 | 0.00 | 74 | 1020.3 |
| 20260506164159 | 53 | 96 | 4.0 | 10.0 | 0.00 | 0.00 | 0.00 | 74 | 1020.1 |
| 20260506163655 | 52 | 78 | 7.0 | 15.0 | 0.00 | 0.00 | 0.00 | 74 | 1020.2 |
| 20260506163151 | 52 | 107 | 6.0 | 11.0 | 0.00 | 0.00 | 0.00 | 75 | 1020.2 |
| 20260506162647 | 53 | 114 | 5.0 | 9.0 | 0.00 | 0.00 | 0.00 | 74 | 1020.3 |
| 20260506162144 | 52 | 104 | 6.0 | 8.0 | 0.00 | 0.00 | 0.00 | 75 | 1020.3 |
| 20260506161642 | 51 | 57 | 6.0 | 8.0 | 0.00 | 0.00 | 0.00 | 78 | 1020.3 |
| 20260506161138 | 51 | 89 | 5.0 | 11.0 | 0.00 | 0.00 | 0.00 | 79 | 1020.2 |
| 20260506160636 | 52 | 81 | 5.0 | 22.0 | 0.00 | 0.00 | 0.00 | 77 | 1020.3 |
| 20260506160133 | 51 | 51 | 7.0 | 18.0 | 0.00 | 0.00 | 0.00 | 79 | 1020.3 |
| 20260506155632 | 51 | 69 | 7.0 | 16.0 | 0.00 | 0.00 | 0.00 | 79 | 1020.1 |
| 20260506155128 | 50 | 76 | 5.0 | 20.0 | 0.00 | 0.00 | 0.00 | 80 | 1020.0 |
| 20260506153230 | 50 | 75 | 6.0 | 10.0 | 0.00 | 0.00 | 0.00 | 80 | 1020.1 |
| 20260506152727 | 50 | 69 | 7.0 | 16.0 | 0.00 | 0.00 | 0.00 | 81 | 1020.0 |
| 20260506152224 | 49 | 67 | 9.0 | 14.0 | 0.00 | 0.00 | 0.00 | 80 | 1020.3 |
| 20260506151724 | 50 | 96 | 6.0 | 7.0 | 0.00 | 0.00 | 0.00 | 80 | 1020.1 |
| 20260506151220 | 50 | 116 | 4.0 | 7.0 | 0.00 | 0.00 | 0.00 | 81 | 1020.2 |
| 20260506150716 | 49 | 109 | 5.0 | 8.0 | 0.00 | 0.00 | 0.00 | 82 | 1019.7 |
| 20260506150213 | 49 | 67 | 4.0 | 6.0 | 0.00 | 0.00 | 0.00 | 82 | 1020.0 |
| 20260506145710 | 48 | 65 | 5.0 | 6.0 | 0.00 | 0.00 | 0.00 | 84 | 1020.1 |
| 20260506145207 | 48 | 113 | 4.0 | 8.0 | 0.00 | 0.00 | 0.00 | 85 | 1020.0 |
| 20260506144704 | 48 | 107 | 5.0 | 7.0 | 0.00 | 0.00 | 0.00 | 85 | 1019.7 |
| 20260506144201 | 48 | 104 | 4.0 | 5.0 | 0.00 | 0.00 | 0.00 | 85 | 1019.7 |
| 20260506143659 | 47 | 82 | 3.0 | 7.0 | 0.00 | 0.00 | 0.00 | 86 | 1020.0 |
| 20260506143156 | 47 | 87 | 4.0 | 6.0 | 0.00 | 0.00 | 0.00 | 87 | 1019.9 |
| 20260506142655 | 46 | 62 | 4.0 | 6.0 | 0.00 | 0.00 | 0.00 | 88 | 1019.7 |
| 20260506142152 | 46 | 341 | 2.0 | 2.0 | 0.00 | 0.00 | 0.00 | 89 | 1019.6 |
| 20260506141650 | 46 | 342 | 0.0 | 1.0 | 0.00 | 0.00 | 0.00 | 89 | 1019.4 |
| 20260506141148 | 46 | 25 | 0.0 | 1.0 | 0.00 | 0.00 | 0.00 | 90 | 1019.7 |
| 20260506140645 | 45 | 59 | 0.0 | 2.0 | 0.00 | 0.00 | 0.00 | 91 | 1019.5 |
| 20260506140142 | 45 | 72 | 2.0 | 2.0 | 0.00 | 0.00 | 0.00 | 91 | 1019.6 |
| 20260506135639 | 45 | 87 | 0.0 | 0.0 | 0.00 | 0.00 | 0.00 | 91 | 1019.4 |
| 20260506135135 | 44 | 87 | 0.0 | 0.0 | 0.00 | 0.00 | 0.00 | 91 | 1019.6 |
| 20260506134632 | 44 | 87 | 0.0 | 0.0 | 0.00 | 0.00 | 0.00 | 91 | 1019.3 |
| 20260506134127 | 44 | 87 | 0.0 | 0.0 | 0.00 | 0.00 | 0.00 | 91 | 1019.5 |
| 20260506133625 | 44 | 87 | 0.0 | 0.0 | 0.00 | 0.00 | 0.00 | 91 | 1019.5 |
| 20260506133122 | 44 | 87 | 0.0 | 0.0 | 0.00 | 0.00 | 0.00 | 91 | 1019.5 |
| 20260506132619 | 44 | 85 | 0.0 | 0.0 | 0.00 | 0.00 | 0.00 | 91 | 1019.4 |
| 20260506132116 | 44 | 85 | 0.0 | 0.0 | 0.00 | 0.00 | 0.00 | 91 | 1019.5 |
| 20260506131614 | 44 | 85 | 0.0 | 0.0 | 0.00 | 0.00 | 0.00 | 91 | 1019.2 |
| 20260506131110 | 44 | 87 | 1.0 | 2.0 | 0.00 | 0.00 | 0.00 | 91 | 1019.1 |
| 20260506130607 | 44 | 94 | 1.0 | 2.0 | 0.00 | 0.00 | 0.00 | 91 | 1019.2 |
| 20260506130104 | 44 | 93 | 1.0 | 2.0 | 0.00 | 0.00 | 0.00 | 91 | 1019.1 |
| 20260506125603 | 44 | 92 | 1.0 | 2.0 | 0.00 | 0.00 | 0.00 | 90 | 1019.2 |
| 20260506125100 | 44 | 91 | 1.0 | 2.0 | 0.00 | 0.00 | 0.00 | 90 | 1018.8 |
| 20260506124557 | 44 | 91 | 1.0 | 2.0 | 0.00 | 0.00 | 0.00 | 90 | 1019.0 |
| 20260506124055 | 44 | 90 | 0.0 | 1.0 | 0.00 | 0.00 | 0.00 | 90 | 1019.1 |
| 20260506123552 | 44 | 87 | 0.0 | 1.0 | 0.00 | 0.00 | 0.00 | 90 | 1019.1 |
| 20260506123051 | 44 | 86 | 0.0 | 1.0 | 0.00 | 0.00 | 0.00 | 90 | 1019.0 |
| 20260506122547 | 44 | 85 | 1.0 | 1.0 | 0.00 | 0.00 | 0.00 | 90 | 1018.8 |
| 20260506122046 | 44 | 85 | 0.0 | 1.0 | 0.00 | 0.00 | 0.00 | 90 | 1018.8 |
| 20260506121542 | 44 | 82 | 2.0 | 2.0 | 0.00 | 0.00 | 0.00 | 90 | 1019.0 |
| 20260506121038 | 45 | 70 | 1.0 | 1.0 | 0.00 | 0.00 | 0.00 | 90 | 1019.1 |
| 20260506120537 | 45 | 41 | 1.0 | 1.0 | 0.00 | 0.00 | 0.00 | 90 | 1019.2 |
| 20260506120034 | 45 | 41 | 0.0 | 0.0 | 0.00 | 0.00 | 0.00 | 89 | 1019.1 |
| 20260506115532 | 45 | 48 | 2.0 | 2.0 | 0.00 | 0.00 | 0.00 | 89 | 1019.0 |
| 20260506115030 | 45 | 77 | 1.0 | 2.0 | 0.00 | 0.00 | 0.00 | 89 | 1019.1 |
| 20260506114527 | 45 | 82 | 2.0 | 2.0 | 0.00 | 0.00 | 0.00 | 89 | 1019.2 |
| 20260506114026 | 45 | 68 | 1.0 | 2.0 | 0.00 | 0.00 | 0.00 | 89 | 1019.0 |
| 20260506113523 | 45 | 53 | 1.0 | 2.0 | 0.00 | 0.00 | 0.00 | 89 | 1019.0 |
| 20260506113020 | 45 | 64 | 1.0 | 3.0 | 0.00 | 0.00 | 0.00 | 89 | 1019.0 |
| 20260506112516 | 45 | 64 | 3.0 | 5.0 | 0.00 | 0.00 | 0.00 | 89 | 1019.1 |
| 20260506112014 | 45 | 71 | 1.0 | 3.0 | 0.00 | 0.00 | 0.00 | 89 | 1018.7 |
| 20260506111512 | 45 | 45 | 2.0 | 2.0 | 0.00 | 0.00 | 0.00 | 89 | 1018.7 |
| 20260506111009 | 45 | 48 | 1.0 | 2.0 | 0.00 | 0.00 | 0.00 | 89 | 1018.8 |
| 20260506110507 | 45 | 76 | 3.0 | 5.0 | 0.00 | 0.00 | 0.00 | 89 | 1018.7 |
| 20260506110004 | 46 | 45 | 0.0 | 3.0 | 0.00 | 0.00 | 0.00 | 89 | 1018.7 |
| 20260506105459 | 46 | 69 | 2.0 | 3.0 | 0.00 | 0.00 | 0.00 | 89 | 1018.7 |
| 20260506104957 | 46 | 61 | 1.0 | 2.0 | 0.00 | 0.00 | 0.00 | 89 | 1018.7 |
| 20260506104455 | 46 | 65 | 3.0 | 5.0 | 0.00 | 0.00 | 0.00 | 88 | 1018.6 |
| 20260506103953 | 46 | 56 | 1.0 | 2.0 | 0.00 | 0.00 | 0.00 | 88 | 1018.8 |
| 20260506103449 | 46 | 38 | 3.0 | 3.0 | 0.00 | 0.00 | 0.00 | 88 | 1018.6 |
| 20260506102946 | 45 | 274 | 0.0 | 0.0 | 0.00 | 0.00 | 0.00 | 88 | 1018.8 |
| 20260506102444 | 46 | 268 | 0.0 | 0.0 | 0.00 | 0.00 | 0.00 | 89 | 1018.8 |
| 20260506101941 | 45 | 282 | 0.0 | 0.0 | 0.00 | 0.00 | 0.00 | 89 | 1018.8 |
| 20260506101438 | 45 | 281 | 0.0 | 0.0 | 0.00 | 0.00 | 0.00 | 89 | 1018.5 |
| 20260506100935 | 45 | 278 | 0.0 | 0.0 | 0.00 | 0.00 | 0.00 | 89 | 1018.5 |
| 20260506100433 | 45 | 277 | 0.0 | 0.0 | 0.00 | 0.00 | 0.00 | 89 | 1018.5 |
| 20260506095931 | 45 | 277 | 0.0 | 0.0 | 0.00 | 0.00 | 0.00 | 89 | 1018.5 |
| 20260506095429 | 45 | 277 | 0.0 | 0.0 | 0.00 | 0.00 | 0.00 | 89 | 1018.5 |
| 20260506094925 | 45 | 280 | 0.0 | 1.0 | 0.00 | 0.00 | 0.00 | 89 | 1018.5 |
| 20260506094424 | 45 | 280 | 1.0 | 2.0 | 0.00 | 0.00 | 0.00 | 89 | 1018.4 |
| 20260506093921 | 45 | 268 | 0.0 | 0.0 | 0.00 | 0.00 | 0.00 | 89 | 1018.4 |
| 20260506093419 | 45 | 268 | 1.0 | 1.0 | 0.00 | 0.00 | 0.00 | 89 | 1018.5 |
| 20260506092917 | 45 | 268 | 0.0 | 1.0 | 0.00 | 0.00 | 0.00 | 89 | 1018.5 |
| 20260506092415 | 45 | 276 | 0.0 | 2.0 | 0.00 | 0.00 | 0.00 | 89 | 1018.4 |
| 20260506091911 | 45 | 271 | 1.0 | 2.0 | 0.00 | 0.00 | 0.00 | 89 | 1018.4 |
| 20260506091409 | 45 | 267 | 0.0 | 0.0 | 0.00 | 0.00 | 0.00 | 89 | 1018.5 |
| 20260506090906 | 45 | 268 | 0.0 | 0.0 | 0.00 | 0.00 | 0.00 | 89 | 1018.5 |
| 20260506090403 | 45 | 269 | 1.0 | 1.0 | 0.00 | 0.00 | 0.00 | 89 | 1018.6 |
| 20260506085900 | 45 | 266 | 0.0 | 0.0 | 0.00 | 0.00 | 0.00 | 88 | 1018.5 |
| 20260506085356 | 45 | 266 | 0.0 | 0.0 | 0.00 | 0.00 | 0.00 | 88 | 1018.3 |
| 20260506084853 | 45 | 265 | 0.0 | 0.0 | 0.00 | 0.00 | 0.00 | 88 | 1018.5 |
| 20260506084349 | 45 | 271 | 0.0 | 1.0 | 0.00 | 0.00 | 0.00 | 88 | 1018.6 |
| 20260506083846 | 45 | 274 | 0.0 | 0.0 | 0.00 | 0.00 | 0.00 | 88 | 1018.5 |
| 20260506083344 | 45 | 281 | 0.0 | 1.0 | 0.00 | 0.00 | 0.00 | 88 | 1018.3 |
| 20260506082841 | 45 | 283 | 0.0 | 0.0 | 0.00 | 0.00 | 0.00 | 88 | 1018.3 |
| 20260506082338 | 45 | 284 | 0.0 | 1.0 | 0.00 | 0.00 | 0.00 | 87 | 1018.5 |
| 20260506081833 | 45 | 285 | 0.0 | 1.0 | 0.00 | 0.00 | 0.00 | 87 | 1018.4 |
| 20260506081332 | 45 | 285 | 1.0 | 2.0 | 0.00 | 0.00 | 0.00 | 87 | 1018.4 |
| 20260506080829 | 45 | 284 | 0.0 | 1.0 | 0.00 | 0.00 | 0.00 | 88 | 1018.4 |
| 20260506080325 | 44 | 282 | 0.0 | 0.0 | 0.00 | 0.00 | 0.00 | 87 | 1018.6 |
| 20260506073310 | 45 | 265 | 0.0 | 1.0 | 0.00 | 0.00 | 0.00 | 87 | 1018.4 |
| 20260506072806 | 45 | 268 | 0.0 | 0.0 | 0.00 | 0.00 | 0.00 | 87 | 1018.4 |
| 20260506072305 | 45 | 274 | 0.0 | 2.0 | 0.00 | 0.00 | 0.00 | 87 | 1018.2 |
| 20260506071801 | 45 | 256 | 0.0 | 1.0 | 0.00 | 0.00 | 0.00 | 87 | 1018.4 |
| 20260506071259 | 45 | 256 | 0.0 | 0.0 | 0.00 | 0.00 | 0.00 | 87 | 1018.1 |
| 20260506070756 | 45 | 255 | 0.0 | 0.0 | 0.00 | 0.00 | 0.00 | 87 | 1017.9 |
| 20260506070253 | 45 | 255 | 0.0 | 0.0 | 0.00 | 0.00 | 0.00 | 86 | 1018.1 |
| 20260506062230 | 45 | 253 | 0.0 | 0.0 | 0.00 | 0.01 | 0.01 | 86 | 1017.6 |
| 20260506061726 | 45 | 253 | 0.0 | 0.0 | 0.00 | 0.01 | 0.01 | 86 | 1017.7 |
| 20260506061224 | 45 | 254 | 0.0 | 0.0 | 0.00 | 0.01 | 0.01 | 86 | 1017.4 |
| 20260506060722 | 45 | 254 | 0.0 | 1.0 | 0.00 | 0.01 | 0.01 | 86 | 1017.4 |
| 20260506060219 | 45 | 253 | 0.0 | 0.0 | 0.00 | 0.01 | 0.01 | 86 | 1017.4 |
| 20260506051151 | 45 | 252 | 0.0 | 0.0 | 0.00 | 0.01 | 0.01 | 87 | 1016.9 |
| 20260506050649 | 45 | 251 | 0.0 | 1.0 | 0.00 | 0.01 | 0.01 | 87 | 1017.0 |
| 20260506050146 | 45 | 251 | 0.0 | 0.0 | 0.00 | 0.01 | 0.01 | 87 | 1017.0 |
| 20260506044637 | 45 | 242 | 0.0 | 1.0 | 0.00 | 0.01 | 0.01 | 87 | 1017.0 |
| 20260506044134 | 45 | 230 | 0.0 | 0.0 | 0.00 | 0.01 | 0.01 | 87 | 1016.9 |
| 20260506043631 | 45 | 231 | 0.0 | 0.0 | 0.00 | 0.01 | 0.01 | 87 | 1016.7 |
| 20260506043129 | 45 | 230 | 0.0 | 0.0 | 0.00 | 0.01 | 0.01 | 87 | 1016.9 |
| 20260506042627 | 45 | 225 | 1.0 | 1.0 | 0.00 | 0.01 | 0.01 | 88 | 1016.8 |
| 20260506042125 | 45 | 219 | 0.0 | 1.0 | 0.00 | 0.01 | 0.01 | 88 | 1016.6 |
| 20260506041624 | 44 | 216 | 0.0 | 0.0 | 0.00 | 0.01 | 0.01 | 88 | 1016.8 |
| 20260506041120 | 44 | 210 | 0.0 | 0.0 | 0.00 | 0.01 | 0.01 | 88 | 1016.6 |
| 20260506040618 | 44 | 201 | 0.0 | 1.0 | 0.00 | 0.01 | 0.01 | 88 | 1016.4 |
| 20260506040114 | 44 | 167 | 1.0 | 2.0 | 0.00 | 0.01 | 0.01 | 88 | 1016.5 |
| 20260506035611 | 44 | 235 | 0.0 | 1.0 | 0.00 | 0.01 | 0.01 | 89 | 1016.4 |
| 20260506035108 | 44 | 239 | 0.0 | 0.0 | 0.00 | 0.01 | 0.01 | 89 | 1016.7 |
| 20260506034605 | 45 | 241 | 0.0 | 1.0 | 0.00 | 0.01 | 0.01 | 89 | 1016.4 |
| 20260506034102 | 45 | 284 | 1.0 | 2.0 | 0.00 | 0.01 | 0.01 | 89 | 1016.1 |
| 20260506033559 | 45 | 251 | 0.0 | 1.0 | 0.00 | 0.01 | 0.01 | 89 | 1016.1 |
| 20260506033056 | 45 | 256 | 0.0 | 0.0 | 0.00 | 0.01 | 0.01 | 89 | 1015.9 |
| 20260506032553 | 44 | 254 | 0.0 | 1.0 | 0.00 | 0.01 | 0.01 | 89 | 1016.0 |
| 20260506032050 | 44 | 279 | 1.0 | 1.0 | 0.00 | 0.01 | 0.01 | 89 | 1016.1 |
| 20260506031548 | 44 | 294 | 0.0 | 0.0 | 0.00 | 0.01 | 0.01 | 89 | 1015.9 |
| 20260506031044 | 44 | 300 | 0.0 | 0.0 | 0.00 | 0.01 | 0.01 | 89 | 1015.8 |
| 20260506030543 | 44 | 316 | 1.0 | 1.0 | 0.00 | 0.01 | 0.01 | 89 | 1015.9 |
| 20260506030040 | 45 | 12 | 0.0 | 0.0 | 0.00 | 0.01 | 0.01 | 89 | 1015.8 |
| 20260506025537 | 45 | 58 | 0.0 | 0.0 | 0.00 | 0.01 | 0.01 | 89 | 1015.7 |
| 20260506025032 | 45 | 61 | 0.0 | 1.0 | 0.00 | 0.01 | 0.01 | 88 | 1015.5 |
| 20260506024530 | 45 | 65 | 1.0 | 3.0 | 0.00 | 0.01 | 0.01 | 88 | 1015.6 |
| 20260506024026 | 45 | 71 | 1.0 | 6.0 | 0.00 | 0.01 | 0.01 | 88 | 1015.6 |
| 20260506023522 | 45 | 97 | 1.0 | 5.0 | 0.00 | 0.01 | 0.01 | 88 | 1015.5 |
| 20260506023020 | 46 | 79 | 3.0 | 3.0 | 0.00 | 0.01 | 0.01 | 87 | 1015.4 |
| 20260506022517 | 46 | 123 | 1.0 | 3.0 | 0.00 | 0.01 | 0.01 | 87 | 1015.2 |
| 20260506022015 | 46 | 121 | 1.0 | 3.0 | 0.00 | 0.01 | 0.01 | 87 | 1015.4 |
| 20260506021512 | 46 | 72 | 5.0 | 6.0 | 0.00 | 0.01 | 0.01 | 87 | 1015.4 |
| 20260506021009 | 46 | 48 | 4.0 | 9.0 | 0.00 | 0.01 | 0.01 | 87 | 1015.1 |
| 20260506020507 | 46 | 83 | 2.0 | 5.0 | 0.00 | 0.01 | 0.01 | 87 | 1015.1 |
| 20260506020004 | 46 | 58 | 1.0 | 8.0 | 0.00 | 0.01 | 0.01 | 87 | 1015.0 |
| 20260506015501 | 47 | 68 | 3.0 | 6.0 | 0.00 | 0.01 | 0.01 | 87 | 1014.8 |
| 20260506014958 | 47 | 74 | 6.0 | 7.0 | 0.00 | 0.01 | 0.01 | 87 | 1015.1 |
| 20260506014455 | 47 | 92 | 2.0 | 7.0 | 0.00 | 0.01 | 0.01 | 87 | 1014.9 |
| 20260506013951 | 47 | 76 | 6.0 | 11.0 | 0.00 | 0.01 | 0.01 | 87 | 1015.0 |
| 20260506013449 | 47 | 79 | 6.0 | 8.0 | 0.00 | 0.01 | 0.01 | 87 | 1014.9 |
| 20260506012945 | 47 | 52 | 3.0 | 9.0 | 0.00 | 0.01 | 0.01 | 86 | 1014.7 |
| 20260506012442 | 47 | 74 | 7.0 | 15.0 | 0.00 | 0.01 | 0.01 | 87 | 1014.8 |
| 20260506011939 | 47 | 79 | 4.0 | 7.0 | 0.00 | 0.01 | 0.01 | 87 | 1015.0 |
| 20260506011436 | 47 | 77 | 4.0 | 6.0 | 0.00 | 0.01 | 0.01 | 88 | 1014.9 |
| 20260506010933 | 46 | 45 | 7.0 | 11.0 | 0.00 | 0.01 | 0.01 | 89 | 1014.8 |
| 20260506010432 | 46 | 45 | 3.0 | 5.0 | 0.00 | 0.01 | 0.01 | 90 | 1014.9 |
| 20260506005927 | 46 | 51 | 5.0 | 9.0 | 0.00 | 0.01 | 0.01 | 91 | 1014.8 |
| 20260506005426 | 46 | 48 | 4.0 | 7.0 | 0.00 | 0.01 | 0.01 | 92 | 1014.8 |
| 20260506004920 | 46 | 84 | 4.0 | 6.0 | 0.00 | 0.01 | 0.01 | 92 | 1014.7 |
| 20260506004419 | 46 | 47 | 4.0 | 7.0 | 0.00 | 0.01 | 0.01 | 92 | 1014.9 |
| 20260506003914 | 46 | 69 | 5.0 | 8.0 | 0.00 | 0.01 | 0.01 | 92 | 1015.0 |
| 20260506003411 | 46 | 46 | 7.0 | 8.0 | 0.00 | 0.01 | 0.01 | 92 | 1015.1 |
| 20260506002908 | 46 | 80 | 5.0 | 8.0 | 0.00 | 0.01 | 0.01 | 92 | 1014.9 |
| 20260506002404 | 46 | 43 | 4.0 | 11.0 | 0.00 | 0.01 | 0.01 | 92 | 1014.9 |
| 20260506001859 | 46 | 46 | 6.0 | 8.0 | 0.00 | 0.01 | 0.01 | 92 | 1014.9 |
| 20260506001356 | 46 | 76 | 5.0 | 10.0 | 0.00 | 0.01 | 0.01 | 92 | 1014.8 |
| 20260506000853 | 46 | 67 | 8.0 | 9.0 | 0.00 | 0.01 | 0.01 | 91 | 1014.8 |
| 20260506000354 | 46 | 62 | 3.0 | 7.0 | 0.00 | 0.01 | 0.01 | 91 | 1014.7 |
| 20260505235848 | 46 | 99 | 3.0 | 5.0 | 0.00 | 0.01 | 0.01 | 91 | 1014.5 |
| 20260505235345 | 46 | 76 | 5.0 | 10.0 | 0.00 | 0.01 | 0.01 | 90 | 1014.5 |
| 20260505234842 | 46 | 73 | 5.0 | 8.0 | 0.00 | 0.01 | 0.01 | 90 | 1014.3 |
| 20260505234340 | 46 | 65 | 6.0 | 9.0 | 0.00 | 0.01 | 0.01 | 89 | 1014.2 |
| 20260505233837 | 46 | 64 | 6.0 | 7.0 | 0.00 | 0.01 | 0.01 | 89 | 1014.5 |
| 20260505233335 | 46 | 86 | 3.0 | 8.0 | 0.00 | 0.01 | 0.01 | 90 | 1014.5 |
| 20260505232832 | 46 | 51 | 8.0 | 10.0 | 0.00 | 0.01 | 0.01 | 90 | 1014.6 |
| 20260505232330 | 46 | 47 | 8.0 | 11.0 | 0.00 | 0.01 | 0.01 | 90 | 1014.6 |
| 20260505231826 | 46 | 53 | 3.0 | 8.0 | 0.00 | 0.01 | 0.01 | 90 | 1014.6 |
| 20260505231324 | 46 | 69 | 5.0 | 8.0 | 0.00 | 0.01 | 0.01 | 89 | 1014.5 |
| 20260505230822 | 46 | 92 | 6.0 | 8.0 | 0.00 | 0.01 | 0.01 | 89 | 1014.6 |
| 20260505230318 | 46 | 56 | 5.0 | 10.0 | 0.00 | 0.01 | 0.01 | 89 | 1014.6 |
| 20260505225815 | 46 | 78 | 6.0 | 8.0 | 0.00 | 0.01 | 0.01 | 90 | 1014.8 |
| 20260505225313 | 46 | 55 | 6.0 | 13.0 | 0.00 | 0.01 | 0.01 | 90 | 1014.6 |
| 20260505224807 | 46 | 91 | 4.0 | 8.0 | 0.00 | 0.01 | 0.01 | 90 | 1014.6 |
| 20260505224306 | 45 | 87 | 4.0 | 7.0 | 0.00 | 0.01 | 0.01 | 90 | 1014.9 |
| 20260505223802 | 45 | 96 | 7.0 | 8.0 | 0.00 | 0.01 | 0.01 | 90 | 1014.8 |
| 20260505223259 | 45 | 104 | 5.0 | 7.0 | 0.00 | 0.01 | 0.01 | 90 | 1015.0 |
| 20260505222755 | 46 | 84 | 6.0 | 10.0 | 0.00 | 0.01 | 0.01 | 90 | 1015.0 |
| 20260505222251 | 46 | 117 | 2.0 | 10.0 | 0.00 | 0.01 | 0.01 | 90 | 1014.9 |
| 20260505221749 | 46 | 63 | 6.0 | 7.0 | 0.00 | 0.01 | 0.01 | 90 | 1014.9 |
| 20260505221245 | 45 | 66 | 6.0 | 8.0 | 0.00 | 0.01 | 0.01 | 90 | 1015.0 |
| 20260505220742 | 45 | 121 | 2.0 | 8.0 | 0.00 | 0.01 | 0.01 | 91 | 1014.9 |
| 20260505220239 | 45 | 74 | 3.0 | 8.0 | 0.00 | 0.01 | 0.01 | 91 | 1014.9 |
| 20260505215737 | 45 | 66 | 5.0 | 10.0 | 0.00 | 0.01 | 0.01 | 91 | 1014.8 |
| 20260505215235 | 45 | 75 | 7.0 | 11.0 | 0.00 | 0.01 | 0.01 | 92 | 1014.9 |
| 20260505214733 | 45 | 89 | 4.0 | 9.0 | 0.00 | 0.01 | 0.01 | 92 | 1014.8 |
| 20260505214229 | 45 | 80 | 6.0 | 9.0 | 0.00 | 0.01 | 0.01 | 92 | 1015.0 |
| 20260505213727 | 45 | 110 | 4.0 | 9.0 | 0.00 | 0.01 | 0.01 | 92 | 1015.0 |
| 20260505213224 | 45 | 73 | 4.0 | 9.0 | 0.00 | 0.01 | 0.01 | 92 | 1014.9 |
| 20260505212720 | 46 | 90 | 7.0 | 8.0 | 0.00 | 0.01 | 0.01 | 92 | 1014.8 |
| 20260505212218 | 45 | 59 | 5.0 | 7.0 | 0.00 | 0.01 | 0.01 | 92 | 1015.0 |
| 20260505211714 | 45 | 87 | 4.0 | 5.0 | 0.00 | 0.01 | 0.01 | 92 | 1015.2 |
| 20260505211212 | 44 | 77 | 6.0 | 8.0 | 0.00 | 0.01 | 0.01 | 92 | 1015.0 |
| 20260505210708 | 44 | 66 | 9.0 | 13.0 | 0.00 | 0.01 | 0.01 | 92 | 1015.1 |
| 20260505210205 | 44 | 82 | 5.0 | 10.0 | 0.00 | 0.01 | 0.01 | 93 | 1015.1 |
| 20260505205703 | 44 | 61 | 7.0 | 13.0 | 0.00 | 0.01 | 0.01 | 93 | 1015.4 |
| 20260505205201 | 44 | 88 | 8.0 | 13.0 | 0.00 | 0.01 | 0.01 | 93 | 1015.1 |
| 20260505204657 | 45 | 103 | 5.0 | 10.0 | 0.00 | 0.01 | 0.01 | 93 | 1015.2 |
| 20260505204155 | 45 | 100 | 5.0 | 9.0 | 0.00 | 0.01 | 0.01 | 93 | 1015.0 |
| 20260505203652 | 44 | 91 | 4.0 | 8.0 | 0.00 | 0.01 | 0.01 | 93 | 1015.4 |
| 20260505203148 | 45 | 104 | 6.0 | 7.0 | 0.00 | 0.01 | 0.01 | 93 | 1015.0 |
| 20260505202643 | 45 | 88 | 3.0 | 7.0 | 0.00 | 0.01 | 0.01 | 93 | 1015.0 |
| 20260505202139 | 45 | 70 | 6.0 | 8.0 | 0.00 | 0.01 | 0.01 | 93 | 1015.1 |
| 20260505201631 | 44 | 129 | 7.0 | 9.0 | 0.00 | 0.01 | 0.01 | 93 | 1015.1 |
| 20260505201129 | 45 | 86 | 6.0 | 9.0 | 0.00 | 0.01 | 0.01 | 93 | 1014.8 |